Other Public Products
Issued by NWS Charleston, SC

Current Version | Previous Version | Graphics & Text | Print | Product List | Glossary On
Versions: 1 2 3 4 5 6 7 8 9 10 11 12 13 14 15 16 17 18 19 20 21 22 23 24 25 26 27 28 29 30 31 32 33 34 35 36 37 38 39 40 41 42 43 44 45 46 47 48 49 50
877 FPUS82 KCHS 021512 OPUCHS TEST...KCHS/KSAV Gateway Observations...TEST National Weather Service Charleston SC 1000 AM EST FRI DEC 02 2016 NOTE: "fair" indicates few or no clouds below 12,000 feet with no significant weather and/or obstructions to visibility. SCZ050-WAZ558-NCZ071-TXZ119-213-PAZ071-DCZ001-FLZ074-172-MI076- NYZ176-178-MAZ016-IL014-TNZ027-NJZ106-GAZ044-MD014-021600- ...Gateway Observations for Charleston International... CITY SKY/WX TMP DP RH WIND PRES REMARKS Chas Airport MOSUNNY 53 35 50 NE13 30.18R Seattle CLOUDY 44 42 93 SE10 30.29S Charlotte MOSUNNY 48 33 56 SW5 30.19R Dallas DFW PTSUNNY 51 38 60 SE5 30.16R Dallas Love PTSUNNY 51 38 60 E5 30.17R Philladelphia PTSUNNY 48 28 46 NW21G28 30.00R Wash National PTSUNNY 49 28 44 W15G24 30.09R Baltimore PTSUNNY 47 28 47 W23G29 30.04S Miami CLOUDY 75 72 90 NE9 30.09R Detroit LGT RAIN 39 35 86 W12 30.05R WCI 32 Newark PTSUNNY 46 30 53 W20G29 29.93R Laguardia PTSUNNY 47 30 51 W15 29.92R J F K PTSUNNY 47 30 51 W16 29.94R Boston Logan MOSUNNY 46 33 60 W15G21 29.78F Ft. Lauderdale PTSUNNY 78 70 76 N6 30.09R Chicago O`Hare CLOUDY 38 31 76 W10 30.13R WCI 31 Chicago Midway CLOUDY 39 31 72 W10 30.14R WCI 32 Houston Bush CLOUDY 57 43 59 E13 30.13S Houston Hobby PTSUNNY 61 50 67 E12 30.11R Nashville SUNNY 42 32 67 CALM 30.28R Atlanta MOSUNNY 47 30 51 NW10 30.26R $$ GAZ044-118-TXZ119-213-NCZ071-DCZ001-MDZ014-506-PAZ021-071-NJZ106- NYZ176-178-MAZ106-OHZ011-021-055-MIZ076-KYZ091-ILZ014-INZ047- MNZ060-021600- ...Gateway Observations for Savannah International... CITY SKY/WX TMP DP RH WIND PRES REMARKS Savannah Arpt MOSUNNY 51 35 54 N7 30.20R Atlanta MOSUNNY 47 30 51 NW10 30.26R Charlotte MOSUNNY 48 33 56 SW5 30.19R Dallas DFW PTSUNNY 51 38 60 SE5 30.16R Houston Bush CLOUDY 57 43 59 E13 30.13S Wash National PTSUNNY 49 28 44 W15G24 30.09R Wash Dulles PTSUNNY 47 27 45 NW14 30.08R Baltimore PTSUNNY 47 28 47 W23G29 30.04S Philadelphia PTSUNNY 48 28 46 NW21G28 30.00R Newark PTSUNNY 46 30 53 W20G29 29.93R Laguardia PTSUNNY 47 30 51 W15 29.92R J F K PTSUNNY 47 30 51 W16 29.94R Boston MOSUNNY 46 33 60 W15G21 29.78F Pittsburg CLOUDY 38 28 67 W10G20 30.06R WCI 31 Akron CLOUDY 38 28 67 W14G22 30.06R WCI 30 Cleveland CLOUDY 39 30 70 W16 30.08R WCI 30 Cincinnati CLOUDY 37 29 72 W10 30.18R WCI 30 Columbus CLOUDY 35 32 88 W13 30.15S WCI 26 Detroit LGT RAIN 39 35 86 W12 30.05R WCI 32 Chicago O`Hare CLOUDY 38 31 76 W10 30.13R WCI 31 Minneapolis CLOUDY 32 21 64 NW8 30.20R WCI 25 Indianapolis CLOUDY 37 30 75 W10 30.18R WCI 30 $$

USA.gov is the U.S. government's official web portal to all federal, state and local government web resources and services.